Zurück zum Katalog

ARIANE 5 R/B

AktivHEO
NORAD 37208·ROCKET BODY·🇫🇷 France

Gestartet Oct 28, 2010 von Guiana Space Centre

Loading…

Nächste Überflüge (nächste 24 Stunden)

TLE

AktuellSource: Space-Track

Epoche: Sep 14, 2026, 07:53 UTC

1 37208U 10056C   26257.32897568  .00003312  00000-0  67052-3 0  9994
2 37208   2.6295 272.5494 6805134 338.5665   2.9836  2.90473394148419

Verfolge ARIANE 5 R/B in Echtzeit mit AllMySat

Download on the App Store